Location: Colle Santa Colomba
(42.0333°N, 12.5667°E)
Time: 22:15:09
(UTC+00:00)

Cosmos 1455 - Pass Details

Date: 25 October 2021
Orbit: 496 x 520 km, 82.5° (Epoch: 04 December)

Event Time Altitude Azimuth Distance (km) Brightness Sun altitude
Rises 17:27:03 0° 161° (SSE) 2,620 5.6 -14.4°
Reaches altitude 10° 17:29:23 10° 150° (SSE) 1,735 4.6 -14.8°
Enters shadow 17:31:26 23° 122° (ESE) 1,129 3.4 -15.2°
